Location: Cluj-Napoca
(46.7712°N, 23.6236°E)
Time: 01:35:39
(UTC+03:00)

ISS - Pass Details

Date: 03 August 2020
Orbit: 418 x 420 km, 51.6° (Epoch: 11 August)

Event Time Altitude Azimuth Distance (km) Brightness Sun altitude
Rises 21:24:28 0° 291° (WNW) 2,371 2.2 -5.4°
Reaches altitude 10° 21:26:45 10° 279° (W) 1,504 0.3 -5.7°
Maximum altitude 21:29:39 27° 220° (SW) 846 -2.1 -6.1°
Drops below altitude 10° 21:32:33 10° 160° (SSE) 1,496 -1.4 -6.5°
Enters shadow 21:33:28 - 154° (SSE) 1,830 -1.0 -6.6°
